TimeMST,TemperatureF,Dew PointF,Humidity,Sea Level PressureIn,VisibilityMPH,Wind Direction,Wind SpeedMPH,Gust SpeedMPH,PrecipitationIn,Events,Conditions,WindDirDegrees,DateUTC
12:15 AM,-5.8,-7.6,92,29.81,10.0,North,8.1,-,N/A,,Clear,350,2013-01-12 07:15:00
12:35 AM,-7.6,-9.4,92,29.81,10.0,North,8.1,-,N/A,,Clear,350,2013-01-12 07:35:00
12:55 AM,-7.6,-9.4,92,29.82,10.0,North,6.9,-,N/A,,Clear,350,2013-01-12 07:55:00
1:15 AM,-9.4,-11.2,92,29.82,10.0,North,5.8,-,N/A,,Scattered Clouds,360,2013-01-12 08:15:00
1:35 AM,-7.6,-9.4,92,29.83,10.0,North,4.6,-,N/A,,Mostly Cloudy,10,2013-01-12 08:35:00
1:55 AM,-7.6,-9.4,92,29.83,10.0,Calm,Calm,-,N/A,,Overcast,0,2013-01-12 08:55:00
2:15 AM,-5.8,-9.4,84,29.84,10.0,North,4.6,-,N/A,,Overcast,10,2013-01-12 09:15:00
2:55 AM,-5.8,-9.4,84,29.84,10.0,Calm,Calm,-,N/A,,Overcast,0,2013-01-12 09:55:00
3:15 AM,-5.8,-7.6,92,29.84,10.0,NNE,4.6,-,N/A,,Overcast,30,2013-01-12 10:15:00
3:35 AM,-5.8,-7.6,92,29.84,10.0,NNE,8.1,-,N/A,,Overcast,30,2013-01-12 10:35:00
3:55 AM,-5.8,-7.6,92,29.84,10.0,NNE,6.9,-,N/A,,Overcast,30,2013-01-12 10:55:00
4:15 AM,-5.8,-7.6,92,29.84,5.0,NNE,4.6,-,N/A,,Overcast,30,2013-01-12 11:15:00
4:35 AM,-5.8,-7.6,92,29.83,10.0,Calm,Calm,-,N/A,,Overcast,0,2013-01-12 11:35:00
4:55 AM,-5.8,-7.6,92,29.83,4.0,Calm,Calm,-,N/A,,Overcast,0,2013-01-12 11:55:00
5:35 AM,-5.8,-7.6,92,29.84,5.0,Calm,Calm,-,N/A,,Overcast,0,2013-01-12 12:35:00
5:55 AM,-5.8,-9.4,84,29.84,9.0,Calm,Calm,-,N/A,,Overcast,0,2013-01-12 12:55:00
6:15 AM,-7.6,-9.4,92,29.85,8.0,Calm,Calm,-,N/A,,Overcast,0,2013-01-12 13:15:00
6:35 AM,-7.6,-9.4,92,29.86,8.0,Calm,Calm,-,N/A,,Overcast,0,2013-01-12 13:35:00
6:51 AM,-7.6,-9.4,92,29.86,8.0,Calm,Calm,-,N/A,,Mostly Cloudy,0,2013-01-12 13:51:00
7:52 AM,-11.2,-14.8,84,29.87,8.0,Calm,Calm,-,N/A,,Scattered Clouds,0,2013-01-12 14:52:00
8:52 AM,-16.6,-18.4,92,29.90,10.0,North,8.1,-,N/A,,Clear,360,2013-01-12 15:52:00
9:51 AM,-13.0,-16.6,84,29.92,10.0,NNE,3.5,-,N/A,,Clear,20,2013-01-12 16:51:00
10:53 AM,-5.8,-7.6,92,29.92,10.0,Calm,Calm,-,N/A,,Clear,0,2013-01-12 17:53:00
11:54 AM,-2.2,-5.8,85,29.89,10.0,Calm,Calm,-,N/A,,Clear,0,2013-01-12 18:54:00
12:51 PM,-0.4,-5.8,78,29.88,10.0,ESE,3.5,-,N/A,,Partly Cloudy,110,2013-01-12 19:51:00
1:51 PM,1.4,-4.0,78,29.87,10.0,SE,3.5,-,N/A,,Clear,140,2013-01-12 20:51:00
2:53 PM,1.4,-4.0,78,29.86,10.0,Calm,Calm,-,N/A,,Clear,0,2013-01-12 21:53:00
3:55 PM,1.4,-4.0,78,29.87,10.0,Calm,Calm,-,N/A,,Clear,0,2013-01-12 22:55:00
4:51 PM,-2.2,-7.6,78,29.88,10.0,Calm,Calm,-,N/A,,Scattered Clouds,0,2013-01-12 23:51:00
6:51 PM,1.4,-2.2,85,29.88,4.0,Calm,Calm,-,N/A,Snow,Light Snow,0,2013-01-13 01:51:00
7:54 PM,-2.2,-5.8,85,29.89,10.0,North,4.6,-,N/A,Snow,Light Snow,350,2013-01-13 02:54:00
8:51 PM,-5.8,-7.6,92,29.90,8.0,North,6.9,-,N/A,Snow,Light Snow,360,2013-01-13 03:51:00
8:55 PM,-5.8,-7.6,92,29.90,10.0,North,8.1,-,N/A,,Mostly Cloudy,10,2013-01-13 03:55:00
9:15 PM,-4.0,-5.8,92,29.90,5.0,NNE,3.5,-,N/A,,Overcast,30,2013-01-13 04:15:00
9:35 PM,-2.2,-5.8,85,29.90,3.0,Calm,Calm,-,N/A,,Overcast,0,2013-01-13 04:35:00
9:55 PM,-2.2,-5.8,85,29.90,3.0,Calm,Calm,-,N/A,,Overcast,0,2013-01-13 04:55:00
10:15 PM,-2.2,-5.8,85,29.90,3.0,Calm,Calm,-,N/A,,Overcast,0,2013-01-13 05:15:00
10:35 PM,-2.2,-5.8,85,29.90,3.0,Calm,Calm,-,N/A,,Overcast,0,2013-01-13 05:35:00
10:55 PM,-2.2,-5.8,85,29.91,4.0,Calm,Calm,-,N/A,,Overcast,0,2013-01-13 05:55:00
11:15 PM,-0.4,-4.0,85,29.91,3.0,Calm,Calm,-,N/A,,Overcast,0,2013-01-13 06:15:00
11:35 PM,-2.2,-5.8,85,29.91,3.0,Calm,Calm,-,N/A,,Overcast,0,2013-01-13 06:35:00
11:55 PM,-2.2,-5.8,85,29.92,5.0,Calm,Calm,-,N/A,,Overcast,0,2013-01-13 06:55:00